Time,TemperatureF,DewpointF,PressureIn,WindDirection,WindDirectionDegrees,WindSpeedMPH,WindSpeedGustMPH,Humidity,HourlyPrecipIn,Conditions,Clouds,dailyrainin,SoftwareType,DateUTC
2013-05-24 00:03:00,54.0,30.0,29.83,SW,235,10.0,17.0,40,0.00,,,0.02,,2013-05-24 04:03:00,
2013-05-24 00:12:00,54.0,30.0,29.83,SW,235,10.0,17.0,40,0.00,,,0.02,,2013-05-24 04:12:00,
2013-05-24 00:23:00,54.0,30.0,29.83,SW,217,14.0,25.0,40,0.00,,,0.02,,2013-05-24 04:23:00,
2013-05-24 00:33:00,53.0,29.0,29.83,SW,233,8.0,15.0,40,0.00,,,0.02,,2013-05-24 04:33:00,
2013-05-24 00:42:00,53.0,29.0,29.83,SW,233,8.0,15.0,40,0.00,,,0.02,,2013-05-24 04:42:00,
2013-05-24 00:53:00,53.0,30.0,29.83,WSW,253,9.0,14.0,41,0.00,,,0.02,,2013-05-24 04:53:00,
2013-05-24 01:02:00,53.0,30.0,29.83,WSW,250,7.0,16.0,41,0.00,,,0.00,,2013-05-24 05:02:00,
2013-05-24 01:12:00,53.0,30.0,29.83,WSW,250,7.0,16.0,41,0.00,,,0.00,,2013-05-24 05:12:00,
2013-05-24 01:22:00,53.0,30.0,29.83,WSW,248,10.0,13.0,41,0.00,,,0.00,,2013-05-24 05:22:00,
2013-05-24 01:32:00,52.0,29.0,29.83,WSW,244,7.0,9.0,41,0.00,,,0.00,,2013-05-24 05:32:00,
2013-05-24 01:42:00,52.0,29.0,29.83,WSW,244,7.0,9.0,41,0.00,,,0.00,,2013-05-24 05:42:00,
2013-05-24 01:52:00,52.0,29.0,29.82,WSW,249,5.0,11.0,41,0.01,,,0.01,,2013-05-24 05:52:00,
2013-05-24 02:02:00,53.0,29.0,29.82,WSW,244,8.0,15.0,40,0.01,,,0.01,,2013-05-24 06:02:00,
2013-05-24 02:12:00,53.0,29.0,29.82,WSW,244,8.0,15.0,40,0.01,,,0.01,,2013-05-24 06:12:00,
2013-05-24 02:21:00,53.0,29.0,29.81,WSW,240,6.0,12.0,40,0.02,,,0.02,,2013-05-24 06:21:00,
2013-05-24 02:32:00,52.0,28.0,29.80,SW,236,4.0,10.0,40,0.03,,,0.03,,2013-05-24 06:32:00,
2013-05-24 02:42:00,52.0,28.0,29.80,SW,236,4.0,10.0,40,0.03,,,0.03,,2013-05-24 06:42:00,
2013-05-24 02:52:00,53.0,29.0,29.80,SW,219,4.0,10.0,40,0.04,,,0.04,,2013-05-24 06:52:00,
2013-05-24 03:01:00,52.0,28.0,29.79,SSW,201,7.0,12.0,40,0.03,,,0.04,,2013-05-24 07:01:00,
2013-05-24 03:11:00,52.0,28.0,29.79,SSW,201,7.0,12.0,40,0.03,,,0.04,,2013-05-24 07:11:00,
2013-05-24 03:22:00,52.0,28.0,29.78,SSW,202,9.0,14.0,40,0.05,,,0.07,,2013-05-24 07:22:00,
2013-05-24 03:32:00,53.0,29.0,29.77,SW,215,17.0,27.0,39,0.17,,,0.20,,2013-05-24 07:32:00,
2013-05-24 03:42:00,53.0,29.0,29.77,SW,215,17.0,27.0,39,0.17,,,0.20,,2013-05-24 07:42:00,
2013-05-24 03:52:00,54.0,30.0,29.77,SSW,212,15.0,26.0,39,0.17,,,0.21,,2013-05-24 07:52:00,
2013-05-24 04:02:00,53.0,29.0,29.77,South,190,14.0,23.0,39,0.17,,,0.21,,2013-05-24 08:02:00,
2013-05-24 04:11:00,53.0,29.0,29.77,South,190,14.0,23.0,39,0.17,,,0.21,,2013-05-24 08:11:00,
2013-05-24 04:22:00,53.0,29.0,29.76,SSW,202,13.0,24.0,39,0.16,,,0.23,,2013-05-24 08:22:00,
2013-05-24 04:33:00,53.0,29.0,29.76,SSW,199,15.0,24.0,40,0.05,,,0.25,,2013-05-24 08:33:00,
2013-05-24 04:42:00,53.0,29.0,29.76,SSW,199,15.0,24.0,40,0.05,,,0.25,,2013-05-24 08:42:00,
2013-05-24 04:52:00,52.0,28.0,29.75,South,180,13.0,22.0,40,0.06,,,0.27,,2013-05-24 08:52:00,
2013-05-24 05:02:00,52.0,28.0,29.75,SSW,196,15.0,23.0,40,0.07,,,0.28,,2013-05-24 09:02:00,
2013-05-24 05:11:00,52.0,28.0,29.75,SSW,196,15.0,23.0,40,0.07,,,0.28,,2013-05-24 09:11:00,
2013-05-24 05:22:00,53.0,29.0,29.75,SW,217,17.0,25.0,39,0.06,,,0.28,,2013-05-24 09:22:00,
2013-05-24 05:32:00,53.0,29.0,29.76,SSW,209,16.0,28.0,39,0.03,,,0.28,,2013-05-24 09:32:00,
2013-05-24 05:42:00,53.0,29.0,29.76,SSW,209,16.0,28.0,39,0.03,,,0.28,,2013-05-24 09:42:00,
2013-05-24 05:53:00,53.0,29.0,29.75,SSW,199,13.0,26.0,39,0.02,,,0.29,,2013-05-24 09:53:00,
2013-05-24 06:03:00,53.0,29.0,29.75,SSW,213,12.0,21.0,39,0.02,,,0.30,,2013-05-24 10:03:00,
2013-05-24 06:12:00,53.0,29.0,29.75,SSW,213,12.0,21.0,39,0.02,,,0.30,,2013-05-24 10:12:00,
2013-05-24 06:22:00,52.0,28.0,29.75,SSW,205,14.0,21.0,39,0.02,,,0.30,,2013-05-24 10:22:00,
2013-05-24 06:33:00,53.0,29.0,29.74,SSW,193,12.0,18.0,39,0.02,,,0.30,,2013-05-24 10:33:00,
2013-05-24 06:42:00,53.0,29.0,29.74,SSW,193,12.0,18.0,39,0.02,,,0.30,,2013-05-24 10:42:00,
2013-05-24 06:53:00,53.0,29.0,29.74,SSW,207,15.0,22.0,39,0.03,,,0.32,,2013-05-24 10:53:00,
2013-05-24 07:02:00,53.0,28.0,29.73,South,187,17.0,22.0,38,0.06,,,0.36,,2013-05-24 11:02:00,
2013-05-24 07:12:00,53.0,28.0,29.73,South,187,17.0,22.0,38,0.06,,,0.36,,2013-05-24 11:12:00,
2013-05-24 07:22:00,53.0,28.0,29.73,South,176,19.0,26.0,38,0.06,,,0.36,,2013-05-24 11:22:00,
2013-05-24 07:32:00,52.0,27.0,29.72,South,169,19.0,26.0,38,0.07,,,0.37,,2013-05-24 11:32:00,
2013-05-24 07:42:00,52.0,27.0,29.72,South,169,19.0,26.0,38,0.07,,,0.37,,2013-05-24 11:42:00,
2013-05-24 07:52:00,52.0,28.0,29.72,SSE,165,16.0,25.0,39,0.08,,,0.40,,2013-05-24 11:52:00,
2013-05-24 08:02:00,52.0,27.0,29.72,SSE,168,18.0,22.0,38,0.08,,,0.44,,2013-05-24 12:02:00,
2013-05-24 08:11:00,52.0,27.0,29.72,SSE,168,18.0,22.0,38,0.08,,,0.44,,2013-05-24 12:11:00,
2013-05-24 08:22:00,54.0,29.0,29.69,South,173,16.0,25.0,38,0.11,,,0.47,,2013-05-24 12:22:00,
2013-05-24 08:32:00,54.0,29.0,29.68,South,169,17.0,25.0,38,0.19,,,0.56,,2013-05-24 12:32:00,
2013-05-24 08:42:00,54.0,29.0,29.68,South,169,17.0,25.0,38,0.19,,,0.56,,2013-05-24 12:42:00,
2013-05-24 08:52:00,54.0,28.0,29.67,SSE,163,23.0,33.0,37,0.21,,,0.61,,2013-05-24 12:52:00,
2013-05-24 09:02:00,55.0,29.0,29.67,SSE,163,25.0,34.0,37,0.17,,,0.61,,2013-05-24 13:02:00,
2013-05-24 09:11:00,55.0,29.0,29.67,SSE,163,25.0,34.0,37,0.17,,,0.61,,2013-05-24 13:11:00,
2013-05-24 09:22:00,55.0,29.0,29.67,South,190,24.0,40.0,37,0.16,,,0.63,,2013-05-24 13:22:00,
2013-05-24 09:32:00,55.0,29.0,29.67,SSW,199,27.0,41.0,36,0.07,,,0.63,,2013-05-24 13:32:00,
2013-05-24 09:42:00,55.0,29.0,29.67,SSW,199,27.0,41.0,36,0.07,,,0.63,,2013-05-24 13:42:00,
2013-05-24 09:52:00,55.0,29.0,29.67,SSW,196,24.0,37.0,36,0.02,,,0.63,,2013-05-24 13:52:00,
2013-05-24 10:01:00,55.0,29.0,29.68,SSW,201,21.0,40.0,36,0.02,,,0.63,,2013-05-24 14:01:00,
2013-05-24 10:11:00,55.0,29.0,29.68,SSW,201,21.0,40.0,36,0.02,,,0.63,,2013-05-24 14:11:00,
2013-05-24 10:21:00,55.0,29.0,29.69,SW,229,22.0,33.0,36,0.00,,,0.63,,2013-05-24 14:21:00,
2013-05-24 10:32:00,54.0,28.0,29.69,South,182,20.0,35.0,37,0.00,,,0.63,,2013-05-24 14:32:00,
2013-05-24 10:42:00,54.0,28.0,29.69,South,182,20.0,35.0,37,0.00,,,0.63,,2013-05-24 14:42:00,
2013-05-24 10:52:00,54.0,28.0,29.70,SW,219,19.0,30.0,37,0.00,,,0.63,,2013-05-24 14:52:00,
2013-05-24 11:02:00,53.0,27.0,29.70,SSW,206,15.0,29.0,37,0.00,,,0.63,,2013-05-24 15:02:00,
2013-05-24 11:11:00,53.0,27.0,29.70,SSW,206,15.0,29.0,37,0.00,,,0.63,,2013-05-24 15:11:00,
2013-05-24 11:21:00,53.0,27.0,29.70,SSW,213,15.0,26.0,37,0.01,,,0.64,,2013-05-24 15:21:00,
2013-05-24 11:33:00,53.0,27.0,29.70,South,173,15.0,23.0,37,0.02,,,0.65,,2013-05-24 15:33:00,
2013-05-24 11:43:00,53.0,27.0,29.70,South,173,15.0,23.0,37,0.02,,,0.65,,2013-05-24 15:43:00,
2013-05-24 11:52:00,53.0,27.0,29.71,SSW,205,14.0,25.0,37,0.02,,,0.65,,2013-05-24 15:52:00,
2013-05-24 12:03:00,53.0,27.0,29.71,SW,221,12.0,21.0,37,0.02,,,0.65,,2013-05-24 16:03:00,
2013-05-24 12:12:00,53.0,27.0,29.71,SW,221,12.0,21.0,37,0.02,,,0.65,,2013-05-24 16:12:00,
2013-05-24 12:22:00,52.0,27.0,29.72,WSW,237,9.0,16.0,37,0.01,,,0.65,,2013-05-24 16:22:00,
2013-05-24 12:32:00,52.0,27.0,29.72,SSW,202,9.0,15.0,37,0.01,,,0.66,,2013-05-24 16:32:00,
2013-05-24 12:42:00,52.0,27.0,29.72,SSW,202,9.0,15.0,37,0.01,,,0.66,,2013-05-24 16:42:00,
2013-05-24 12:52:00,52.0,27.0,29.72,SW,233,10.0,15.0,37,0.01,,,0.66,,2013-05-24 16:52:00,
2013-05-24 13:02:00,52.0,27.0,29.72,SW,222,9.0,16.0,37,0.02,,,0.67,,2013-05-24 17:02:00,
2013-05-24 13:12:00,52.0,27.0,29.72,SW,222,9.0,16.0,37,0.02,,,0.67,,2013-05-24 17:12:00,
2013-05-24 13:22:00,52.0,27.0,29.72,WSW,254,7.0,14.0,37,0.03,,,0.68,,2013-05-24 17:22:00,
2013-05-24 13:32:00,51.0,26.0,29.72,WSW,248,4.0,10.0,37,0.03,,,0.69,,2013-05-24 17:32:00,
2013-05-24 13:42:00,51.0,26.0,29.72,WSW,248,4.0,10.0,37,0.03,,,0.69,,2013-05-24 17:42:00,
2013-05-24 13:52:00,51.0,26.0,29.73,West,265,3.0,9.0,37,0.03,,,0.69,,2013-05-24 17:52:00,
2013-05-24 14:01:00,51.0,26.0,29.74,West,266,6.0,9.0,37,0.05,,,0.72,,2013-05-24 18:01:00,
2013-05-24 14:12:00,51.0,26.0,29.74,West,266,6.0,9.0,37,0.05,,,0.72,,2013-05-24 18:12:00,
2013-05-24 14:22:00,51.0,26.0,29.74,West,266,4.0,7.0,37,0.10,,,0.78,,2013-05-24 18:22:00,
2013-05-24 14:32:00,52.0,27.0,29.74,WSW,252,6.0,11.0,37,0.20,,,0.89,,2013-05-24 18:32:00,
2013-05-24 14:42:00,52.0,27.0,29.74,WSW,252,6.0,11.0,37,0.20,,,0.89,,2013-05-24 18:42:00,
2013-05-24 14:52:00,52.0,27.0,29.74,SW,236,8.0,14.0,37,0.34,,,1.03,,2013-05-24 18:52:00,
2013-05-24 15:01:00,52.0,26.0,29.73,WSW,245,6.0,16.0,36,0.44,,,1.16,,2013-05-24 19:01:00,
2013-05-24 15:11:00,52.0,26.0,29.73,WSW,245,6.0,16.0,36,0.44,,,1.16,,2013-05-24 19:11:00,
2013-05-24 15:21:00,52.0,26.0,29.73,West,259,6.0,10.0,36,0.49,,,1.27,,2013-05-24 19:21:00,
2013-05-24 15:32:00,53.0,27.0,29.73,SW,234,5.0,13.0,36,0.44,,,1.33,,2013-05-24 19:32:00,
2013-05-24 15:42:00,53.0,27.0,29.73,SW,234,5.0,13.0,36,0.44,,,1.33,,2013-05-24 19:42:00,
2013-05-24 15:52:00,52.0,26.0,29.72,WSW,238,4.0,7.0,36,0.32,,,1.35,,2013-05-24 19:52:00,
2013-05-24 16:02:00,52.0,26.0,29.72,SW,229,5.0,9.0,36,0.21,,,1.36,,2013-05-24 20:02:00,
2013-05-24 16:12:00,52.0,26.0,29.72,SW,229,5.0,9.0,36,0.21,,,1.36,,2013-05-24 20:12:00,
2013-05-24 16:22:00,53.0,27.0,29.72,SW,234,1.0,11.0,36,0.10,,,1.37,,2013-05-24 20:22:00,
2013-05-24 16:32:00,53.0,27.0,29.72,SW,217,4.0,7.0,36,0.04,,,1.37,,2013-05-24 20:32:00,
2013-05-24 16:42:00,53.0,27.0,29.72,SW,217,4.0,7.0,36,0.04,,,1.37,,2013-05-24 20:42:00,
2013-05-24 16:52:00,54.0,27.0,29.70,SW,217,0.0,0.0,35,0.02,,,1.37,,2013-05-24 20:52:00,
2013-05-24 17:01:00,54.0,27.0,29.71,SW,217,0.0,10.0,35,0.05,,,1.41,,2013-05-24 21:01:00,
2013-05-24 17:11:00,54.0,27.0,29.71,SW,217,0.0,10.0,35,0.05,,,1.41,,2013-05-24 21:11:00,
2013-05-24 17:21:00,53.0,26.0,29.70,SW,217,0.0,0.0,35,0.09,,,1.46,,2013-05-24 21:21:00,
2013-05-24 17:33:00,54.0,27.0,29.70,SW,217,0.0,0.0,35,0.09,,,1.46,,2013-05-24 21:33:00,
2013-05-24 17:42:00,54.0,27.0,29.70,SW,217,0.0,0.0,35,0.09,,,1.46,,2013-05-24 21:42:00,
2013-05-24 17:53:00,55.0,27.0,29.69,South,179,5.0,9.0,34,0.11,,,1.48,,2013-05-24 21:53:00,
2013-05-24 18:03:00,54.0,26.0,29.69,SSE,152,5.0,11.0,34,0.07,,,1.48,,2013-05-24 22:03:00,
2013-05-24 18:12:00,54.0,26.0,29.69,SSE,152,5.0,11.0,34,0.07,,,1.48,,2013-05-24 22:12:00,
2013-05-24 18:22:00,54.0,28.0,29.69,SSE,152,5.0,10.0,36,0.03,,,1.49,,2013-05-24 22:22:00,
2013-05-24 18:33:00,54.0,26.0,29.69,SSE,148,3.0,9.0,34,0.04,,,1.50,,2013-05-24 22:33:00,
2013-05-24 18:42:00,54.0,26.0,29.69,SSE,148,3.0,9.0,34,0.04,,,1.50,,2013-05-24 22:42:00,
2013-05-24 18:52:00,53.0,26.0,29.69,SSE,148,1.0,7.0,35,0.02,,,1.50,,2013-05-24 22:52:00,
2013-05-24 19:02:00,53.0,26.0,29.70,SSE,148,1.0,5.0,35,0.03,,,1.51,,2013-05-24 23:02:00,
2013-05-24 19:11:00,53.0,26.0,29.70,SSE,148,1.0,5.0,35,0.03,,,1.51,,2013-05-24 23:11:00,
2013-05-24 19:22:00,53.0,26.0,29.72,SSE,148,3.0,5.0,35,0.02,,,1.51,,2013-05-24 23:22:00,
2013-05-24 19:32:00,52.0,25.0,29.72,SSE,148,2.0,6.0,35,0.02,,,1.52,,2013-05-24 23:32:00,
2013-05-24 19:42:00,52.0,25.0,29.72,SSE,148,2.0,6.0,35,0.02,,,1.52,,2013-05-24 23:42:00,
2013-05-24 19:52:00,52.0,25.0,29.72,SSE,148,0.0,5.0,35,0.02,,,1.52,,2013-05-24 23:52:00,
2013-05-24 20:01:00,52.0,25.0,29.73,SSE,148,0.0,0.0,35,0.01,,,1.52,,2013-05-25 00:01:00,
2013-05-24 20:12:00,52.0,25.0,29.73,SSE,148,0.0,0.0,35,0.01,,,1.52,,2013-05-25 00:12:00,
2013-05-24 20:22:00,52.0,25.0,29.72,SSE,148,0.0,0.0,35,0.02,,,1.53,,2013-05-25 00:22:00,
2013-05-24 20:32:00,52.0,25.0,29.75,SSE,148,0.0,0.0,35,0.01,,,1.53,,2013-05-25 00:32:00,
2013-05-24 20:42:00,52.0,25.0,29.75,SSE,148,0.0,0.0,35,0.01,,,1.53,,2013-05-25 00:42:00,
2013-05-24 20:52:00,52.0,25.0,29.75,SSE,148,0.0,0.0,35,0.02,,,1.54,,2013-05-25 00:52:00,
2013-05-24 21:01:00,52.0,25.0,29.75,SSE,148,1.0,5.0,35,0.02,,,1.54,,2013-05-25 01:01:00,
2013-05-24 21:11:00,52.0,25.0,29.75,SSE,148,1.0,5.0,35,0.02,,,1.54,,2013-05-25 01:11:00,
2013-05-24 21:22:00,53.0,25.0,29.75,North,360,4.0,9.0,34,0.01,,,1.54,,2013-05-25 01:22:00,
2013-05-24 21:32:00,55.0,26.0,29.76,North,355,9.0,17.0,33,0.01,,,1.54,,2013-05-25 01:32:00,
2013-05-24 21:42:00,55.0,26.0,29.76,North,355,9.0,17.0,33,0.01,,,1.54,,2013-05-25 01:42:00,
2013-05-24 21:52:00,54.0,26.0,29.77,NNW,337,10.0,17.0,33,0.00,,,1.54,,2013-05-25 01:52:00,
2013-05-24 22:02:00,54.0,26.0,29.77,NNW,337,10.0,17.0,33,0.00,,,1.54,,2013-05-25 02:02:00,
2013-05-24 22:12:00,54.0,26.0,29.77,NNW,337,10.0,17.0,33,0.00,,,1.54,,2013-05-25 02:12:00,
2013-05-24 22:21:00,53.0,25.0,29.75,NNE,17,9.0,20.0,34,0.01,,,1.55,,2013-05-25 02:21:00,
2013-05-24 22:32:00,53.0,25.0,29.77,North,355,9.0,21.0,34,0.01,,,1.55,,2013-05-25 02:32:00,
2013-05-24 22:42:00,53.0,25.0,29.77,North,355,9.0,21.0,34,0.01,,,1.55,,2013-05-25 02:42:00,
2013-05-24 22:52:00,53.0,25.0,29.77,NNW,342,8.0,21.0,34,0.01,,,1.55,,2013-05-25 02:52:00,
2013-05-24 23:02:00,53.0,25.0,29.76,North,355,10.0,15.0,34,0.00,,,1.55,,2013-05-25 03:02:00,
2013-05-24 23:11:00,53.0,25.0,29.76,North,355,10.0,15.0,34,0.00,,,1.55,,2013-05-25 03:11:00,
2013-05-24 23:22:00,53.0,25.0,29.77,NNE,17,9.0,16.0,34,0.00,,,1.55,,2013-05-25 03:22:00,
2013-05-24 23:32:00,52.0,25.0,29.78,NW,324,8.0,18.0,34,0.00,,,1.55,,2013-05-25 03:32:00,
2013-05-24 23:43:00,52.0,25.0,29.78,NW,324,8.0,18.0,34,0.00,,,1.55,,2013-05-25 03:43:00,
2013-05-24 23:53:00,52.0,25.0,29.78,NNW,348,11.0,17.0,34,0.00,,,1.55,,2013-05-25 03:53:00,